Location: Ellingshausen
(50.5460°N, 10.4723°E)
Time: 12:50:38
(UTC+00:00)

Cosmos 676 Rocket - Pass Details

Date: 11 April 2026
Orbit: 750 x 779 km, 74.0° (Epoch: 19 May)

Event Time Altitude Azimuth Distance (km) Brightness Sun altitude
Rises 01:26:07 0° 328° (NNW) 3,270 7.6 -25.1°
Reaches altitude 10° 01:28:47 10° 317° (NW) 2,335 6.6 -24.8°
Enters shadow 01:31:21 23° 294° (WNW) 1,621 5.5 -24.6°
